Change the Weather History Date:

Tuesday, July 30, 2013

  Actual Average (KBWI) Record (KBWI)
Temperature  
Mean Temperature 72 °F 77 °F  
Max Temperature 81 °F 87 °F 98 °F (1940)
Min Temperature 64 °F 67 °F 55 °F (2014)
Degree Days  
Heating Degree Days 0 0  
Month to date heating degree days 0  
Since 1 June heating degree days 15  
Since 1 July heating degree days 0  
Cooling Degree Days 8 12  
Month to date cooling degree days 358  
Year to date cooling degree days 680  
Since 1 June cooling degree days 596  
Growing Degree Days 22 (Base 50)    
Moisture  
Dew Point 61 °F    
Average Humidity 65    
Maximum Humidity 87    
Minimum Humidity 45    
Precipitation  
Precipitation 0.00 in 0.14 in 3.14 in (1876)
Month to date precipitation 3.94  
Year to date precipitation 24.43  
Snow  
Snow 0.00 in 0.00 in - ()
Month to date snowfall 0.0  
Since 1 July snowfall 0.0  
Snow Depth -    
Sea Level Pressure  
Sea Level Pressure 30.18 in    
Wind  
Wind Speed 5 mph (West)    
Max Wind Speed 12 mph    
Max Gust Speed -    
Visibility 10 miles    
Events      
T = Trace of Precipitation, MM = Missing Value Source: NWS Daily Summary

Daily Weather History Graph

Daily Weather History Graph

Search for Another Location

Airport or City:

Trip Planner

Search our weather history database for the weather conditions in past years. The results will help you decide how hot, cold, wet, or windy it might be!

Date:

Astronomy

Jul. 30, 2013 Rise Set
Actual Time 6:05 AM EDT 8:19 PM EDT
Civil Twilight 5:35 AM EDT 8:48 PM EDT
Nautical Twilight 4:58 AM EDT 9:25 PM EDT
Astronomical Twilight 4:18 AM EDT 10:05 PM EDT
Moon 12:21 AM EDT 2:37 PM EDT
Length of Visible Light 15h 13m
Length of Day
14h 13m
Last Quarter, 41% of the Moon is Illuminated
Jul 30
Last Quarter
Aug 6
New
Aug 14
First Quarter
Aug 20
Full
Aug 28
Last Quarter

Hourly Weather History & Observations

Time (EDT) Temp. Heat Index Dew Point Humidity Pressure Visibility Wind Dir Wind Speed Gust Speed Precip Events Conditions
12:54 AM 70.0 °F - 57.0 °F 63% 30.16 in 10.0 mi West 3.5 mph - N/A   Clear
1:54 AM 68.0 °F - 57.9 °F 70% 30.17 in 10.0 mi West 5.8 mph - N/A   Clear
2:54 AM 66.9 °F - 57.0 °F 70% 30.17 in 10.0 mi West 4.6 mph - N/A   Clear
3:54 AM 66.0 °F - 57.0 °F 73% 30.17 in 10.0 mi West 5.8 mph - N/A   Scattered Clouds
4:54 AM 64.9 °F - 57.9 °F 78% 30.18 in 10.0 mi West 4.6 mph - N/A   Clear
5:54 AM 64.9 °F - 57.9 °F 78% 30.19 in 10.0 mi West 4.6 mph - N/A   Clear
6:54 AM 69.1 °F - 63.0 °F 81% 30.20 in 10.0 mi North 8.1 mph - N/A   Clear
7:54 AM 69.1 °F - 60.1 °F 73% 30.22 in 10.0 mi West 4.6 mph - N/A   Clear
8:54 AM 72.0 °F - 61.0 °F 68% 30.23 in 10.0 mi NW 5.8 mph - N/A   Clear
9:54 AM 75.0 °F - 59.0 °F 57% 30.22 in 10.0 mi North 6.9 mph - N/A   Clear
10:54 AM 77.0 °F - 57.9 °F 52% 30.22 in 10.0 mi Calm Calm - N/A   Clear
11:54 AM 78.1 °F - 57.0 °F 48% 30.21 in 10.0 mi Calm Calm - N/A   Clear
12:54 PM 77.0 °F - 61.0 °F 58% 30.21 in 10.0 mi SE 9.2 mph - N/A   Mostly Cloudy
1:54 PM 77.0 °F - 62.1 °F 60% 30.19 in 10.0 mi SE 11.5 mph - N/A   Scattered Clouds
2:54 PM 77.0 °F - 63.0 °F 62% 30.18 in 10.0 mi ESE 10.4 mph - N/A   Partly Cloudy
3:54 PM 79.0 °F - 63.0 °F 58% 30.17 in 10.0 mi SE 6.9 mph - N/A   Mostly Cloudy
4:54 PM 81.0 °F 81.3 °F 59.0 °F 47% 30.16 in 10.0 mi Calm Calm - N/A   Clear
5:54 PM 81.0 °F 81.1 °F 57.9 °F 45% 30.15 in 10.0 mi West 8.1 mph - N/A   Clear
6:54 PM 81.0 °F 81.3 °F 59.0 °F 47% 30.15 in 10.0 mi NW 3.5 mph - N/A   Clear
7:54 PM 77.0 °F - 62.1 °F 60% 30.15 in 10.0 mi South 4.6 mph - N/A   Clear
8:54 PM 75.9 °F - 64.0 °F 67% 30.16 in 10.0 mi Calm Calm - N/A   Clear
9:54 PM 73.0 °F - 66.9 °F 81% 30.16 in 10.0 mi Calm Calm - N/A   Clear
10:54 PM 72.0 °F - 68.0 °F 87% 30.17 in 10.0 mi Calm Calm - N/A   Clear
11:54 PM 72.0 °F - 68.0 °F 87% 30.15 in 10.0 mi Calm Calm - N/A   Clear